LEIB

Ibiza Airport

Airport
ICAO code
LEIB
IATA Code
IBZ
Summary
ICAO Region
EUR
ICAO Territory
Location

Es Codolá, Ibiza, Balearics,

Serving
Ibiza
Elevation
24 ft
Coordinates
38° 52' 24" N , 1° 22' 24" E
KCC
Metar
LEIB 251530Z 12009KT 060V160 9999 FEW020 25/18 Q1011 NOSIG

International airport serving island of Ibiza.

Climatology

Dry-summer subtropical ”Mediterranean" climate (Köppen climate classification Csa) - characterized by hot, dry summers and mild winters. During the summer, subtropical high pressure cells dominate, making rainfall unlikely except for the occasional thunderstorm. In the winter, periodic storms bring rain.

Runways

Designator Length Width Surface Rops
6/24 2800 45 ASP Yes/Yes

Airport map

Aerial View

SKYbrary Partners:

Safety knowledge contributed by: